Location: México DF
(19.4326°N, 99.1332°W)
Time: 21:04:33
(UTC+00:00)

ISS - Pass Details

Date: 09 September 2024
Orbit: 413 x 423 km, 51.6° (Epoch: 19 September)

Event Time Altitude Azimuth Distance (km) Brightness Sun altitude
Exits shadow 10:31:33 14° 19° (NNE) 1,292 -0.9 -26.6°
Maximum altitude 10:32:52 17° 46° (NE) 1,166 -0.8 -26.3°
Drops below altitude 10° 10:35:08 10° 88° (E) 1,506 0.0 -25.8°
Sets 10:37:46 0° 110° (ESE) 2,369 0.9 -25.2°
